Date String (YYYY-MM-DD hh:mm:ss) UTC,Instrument flags,absolute air pressure of the measurement (hPa),sample flow rate (lpm),inlet stack bypass flow (lpm),air temperature of the measurement (°C),ambient temperature measured by the external sensor (°C),aerosol sample conditioner tube jacket temperature (°C),OPC LED temperature (°C),internal box temperature (°C),relative humidity of the measurement (%),span deviation,mass concentration of particles derived from Lorenz-Mie calculation of OPC scattering (μg/m³),mass concentration of particles derived from Lorenz-Mie calculation of OPC scattering (μg/m³),mass concentration of particles derived from Lorenz-Mie calculation of OPC scattering (μg/m³)
DateTimeUTC,F1_M11,P_M11,Q1_M11,Q2_M11,T1_M11,T2_M11,T3_M11,T4_M11,T5_M11,U1_M11,ZSPAN_M11,X0_M11,X2_M11,X1_M11
2024-01-11 18:00:00,SystemResetWarning,0815.2,5.01,000.00,019.1,018.8,000.0,027.4,020.0,10.3,0000.0,0006.27,0002.34,0001.05
2024-01-11 18:01:00,SystemResetWarning,0815.2,5.00,000.00,019.1,018.5,000.0,027.4,020.0,10.3,0000.0,0006.73,0002.39,0001.06
2024-01-11 18:02:00,SystemResetWarning,0815.2,4.99,000.00,019.0,018.3,000.0,027.4,020.0,10.3,0000.0,0007.17,0002.42,0001.07
2024-01-11 18:03:00,SystemResetWarning,0815.2,4.99,000.00,019.0,018.2,000.0,027.4,020.1,10.4,0000.0,0007.60,0002.54,0001.08
2024-01-11 18:04:00,SystemResetWarning,0815.3,5.01,000.00,019.1,018.7,000.0,027.4,020.6,10.4,0000.0,0008.07,0002.69,0001.12
2024-01-11 18:05:00,SystemResetWarning,0815.3,5.02,000.00,019.2,019.5,000.0,027.4,021.1,10.3,0000.0,0008.62,0002.82,0001.17
2024-01-11 18:06:00,SystemResetWarning,0815.3,4.99,000.00,019.3,019.7,000.0,027.4,020.9,10.3,0000.0,0009.75,0002.86,0001.22
2024-01-11 18:07:00,SystemResetWarning,0815.3,4.99,000.00,019.3,019.4,000.0,027.4,020.6,10.2,0000.0,0010.23,0002.87,0001.27
2024-01-11 18:08:00,SystemResetWarning,0815.3,5.00,000.00,019.3,019.1,000.0,027.4,020.3,10.3,0000.0,0010.62,0002.85,0001.31
2024-01-11 18:09:00,SystemResetWarning,0815.4,5.01,000.00,019.2,018.9,000.0,027.4,020.1,10.3,0000.0,0010.81,0002.83,0001.34
2024-01-11 18:10:00,SystemResetWarning,0815.4,5.00,000.00,019.2,018.6,000.0,027.4,020.0,10.3,0000.0,0010.83,0002.86,0001.37
2024-01-11 18:11:00,SystemResetWarning,0815.5,5.00,000.00,019.1,018.4,000.0,027.4,020.0,10.3,0000.0,0011.06,0002.91,0001.44
2024-01-11 18:12:00,SystemResetWarning,0815.6,5.00,000.00,019.1,018.3,000.0,027.5,020.1,10.3,0000.0,0011.85,0003.02,0001.51
2024-01-11 18:13:00,SystemResetWarning,0815.6,5.02,000.00,019.1,018.7,000.0,027.5,020.6,10.3,0000.0,0012.49,0003.17,0001.60
2024-01-11 18:14:00,SystemResetWarning,0815.6,4.99,000.00,019.3,019.5,000.0,027.5,021.2,10.2,0000.0,0019.03,0003.41,0001.75
2024-01-11 18:15:00,SystemResetWarning,0815.6,4.99,000.00,019.4,019.7,000.0,027.5,021.0,10.2,0000.0,0021.46,0003.60,0001.90
2024-01-11 18:16:00,SystemResetWarning,0815.6,4.99,000.00,019.4,019.5,000.0,027.5,020.6,10.2,0000.0,0023.69,0003.72,0002.02
2024-01-11 18:17:00,SystemResetWarning,0815.6,5.01,000.00,019.4,019.3,000.0,027.5,020.3,10.1,0000.0,0023.83,0003.85,0002.13
2024-01-11 18:18:00,SystemResetWarning,0815.6,5.01,000.00,019.3,019.0,000.0,027.5,020.2,10.0,0000.0,0024.86,0003.94,0002.25
2024-01-11 18:19:00,SystemResetWarning,0815.5,5.00,000.00,019.3,018.8,000.0,027.5,020.1,10.0,0000.0,0026.16,0004.05,0002.35
2024-01-11 18:20:00,SystemResetWarning,0815.4,5.00,000.00,019.2,018.6,000.0,027.5,020.0,9.9,0000.0,0027.11,0004.23,0002.47
2024-01-11 18:21:00,SystemResetWarning,0815.4,5.00,000.00,019.2,018.4,000.0,027.5,020.0,9.9,0000.0,0027.92,0004.37,0002.59
2024-01-11 18:22:00,SystemResetWarning,0815.4,4.99,000.00,019.1,018.2,000.0,027.5,020.0,9.9,0000.0,0027.80,0004.44,0002.69
2024-01-11 18:23:00,SystemResetWarning,0815.3,4.99,000.00,019.1,018.3,000.0,027.5,020.2,9.9,0000.0,0027.41,0004.52,0002.77
2024-01-11 18:24:00,SystemResetWarning,0815.4,5.01,000.00,019.2,019.0,000.0,027.5,020.8,9.9,0000.0,0028.32,0004.52,0002.83
2024-01-11 18:25:00,SystemResetWarning,0815.5,5.01,000.00,019.4,019.7,000.0,027.5,021.2,9.8,0000.0,0025.26,0004.47,0002.88
2024-01-11 18:26:00,SystemResetWarning,0815.4,5.00,000.00,019.4,019.7,000.0,027.6,020.9,9.8,0000.0,0021.35,0004.36,0002.90
2024-01-11 18:27:00,SystemResetWarning,0815.4,4.98,000.00,019.4,019.4,000.0,027.6,020.5,9.9,0000.0,0019.76,0004.34,0002.92
2024-01-11 18:28:00,SystemResetWarning,0815.4,5.01,000.00,019.3,019.2,000.0,027.6,020.2,9.9,0000.0,0018.30,0004.33,0002.97
2024-01-11 18:29:00,SystemResetWarning,0815.4,5.01,000.00,019.3,018.9,000.0,027.6,020.1,9.8,0000.0,0018.91,0004.39,0003.03
2024-01-11 18:30:00,SystemResetWarning,0815.4,5.00,000.00,019.3,018.7,000.0,027.6,020.0,9.8,0000.0,0017.75,0004.41,0003.08
2024-01-11 18:31:00,SystemResetWarning,0815.5,5.00,000.00,019.2,018.5,000.0,027.6,020.0,9.8,0000.0,0017.97,0004.40,0003.11
2024-01-11 18:32:00,SystemResetWarning,0815.4,4.99,000.00,019.2,018.4,000.0,027.6,020.0,9.8,0000.0,0018.53,0004.44,0003.15
2024-01-11 18:33:00,SystemResetWarning,0815.4,4.99,000.00,019.2,018.4,000.0,027.6,020.2,9.7,0000.0,0018.90,0004.53,0003.19
2024-01-11 18:34:00,SystemResetWarning,0815.5,5.00,000.00,019.2,019.0,000.0,027.6,020.8,9.6,0000.0,0018.95,0004.60,0003.24
2024-01-11 18:35:00,SystemResetWarning,0815.4,5.01,000.00,019.4,019.4,000.0,027.6,021.0,9.6,0000.0,0018.44,0004.63,0003.28
2024-01-11 18:36:00,SystemResetWarning,0815.4,4.99,000.00,019.4,019.3,000.0,027.6,020.6,9.6,0000.0,0018.23,0004.69,0003.30
2024-01-11 18:37:00,SystemResetWarning,0815.3,4.99,000.00,019.3,019.1,000.0,027.6,020.3,9.7,0000.0,0018.27,0004.75,0003.32
2024-01-11 18:38:00,SystemResetWarning,0815.3,5.01,000.00,019.3,018.9,000.0,027.6,020.2,9.7,0000.0,0017.90,0004.83,0003.35
2024-01-11 18:39:00,SystemResetWarning,0815.3,5.00,000.00,019.2,018.7,000.0,027.6,020.1,9.7,0000.0,0017.99,0004.82,0003.38
2024-01-11 18:40:00,SystemResetWarning,0815.3,5.00,000.00,019.2,018.6,000.0,027.6,020.0,9.7,0000.0,0018.34,0004.87,0003.40
2024-01-11 18:41:00,SystemResetWarning,0815.3,5.00,000.00,019.2,018.5,000.0,027.5,020.0,9.6,0000.0,0017.52,0004.86,0003.41
2024-01-11 18:42:00,SystemResetWarning,0815.3,5.00,000.00,019.2,018.4,000.0,027.5,020.0,9.6,0000.0,0017.14,0004.85,0003.43
2024-01-11 18:43:00,SystemResetWarning,0815.3,4.99,000.00,019.1,018.4,000.0,027.5,020.0,9.5,0000.0,0016.56,0004.88,0003.45
2024-01-11 18:44:00,SystemResetWarning,0815.3,5.00,000.00,019.1,018.5,000.0,027.5,020.4,9.5,0000.0,0015.91,0004.78,0003.46
2024-01-11 18:45:00,SystemResetWarning,0815.3,5.02,000.00,019.3,019.3,000.0,027.5,021.0,9.5,0000.0,0016.27,0004.73,0003.47
2024-01-11 18:46:00,SystemResetWarning,0815.3,4.99,000.00,019.4,019.5,000.0,027.6,020.9,9.5,0000.0,0016.70,0004.74,0003.47
2024-01-11 18:47:00,SystemResetWarning,0815.3,4.99,000.00,019.4,019.3,000.0,027.6,020.7,9.5,0000.0,0016.28,0004.78,0003.48
2024-01-11 18:48:00,SystemResetWarning,0815.2,4.99,000.00,019.4,019.2,000.0,027.6,020.4,9.5,0000.0,0016.56,0004.80,0003.48
2024-01-11 18:49:00,SystemResetWarning,0815.2,5.00,000.00,019.3,019.0,000.0,027.6,020.2,9.5,0000.0,0016.41,0004.71,0003.48
2024-01-11 18:50:00,SystemResetWarning,0815.3,4.99,000.00,019.3,018.8,000.0,027.6,020.1,9.5,0000.0,0016.73,0004.68,0003.47
2024-01-11 18:51:00,SystemResetWarning,0815.2,5.00,000.00,019.3,018.7,000.0,027.6,020.1,9.5,0000.0,0015.88,0004.66,0003.46
2024-01-11 18:52:00,SystemResetWarning,0815.3,5.00,000.00,019.2,018.6,000.0,027.5,020.1,9.5,0000.0,0015.79,0004.63,0003.45
2024-01-11 18:53:00,SystemResetWarning,0815.3,5.00,000.00,019.2,018.6,000.0,027.5,020.0,9.4,0000.0,0015.74,0004.66,0003.45
2024-01-11 18:54:00,SystemResetWarning,0815.4,5.00,000.00,019.2,018.5,000.0,027.5,020.0,9.4,0000.0,0015.34,0004.63,0003.45
2024-01-11 18:55:00,SystemResetWarning,0815.4,5.00,000.00,019.2,018.5,000.0,027.5,020.0,9.5,0000.0,0014.72,0004.56,0003.44
2024-01-11 18:56:00,SystemResetWarning,0815.4,5.00,000.00,019.1,018.5,000.0,027.5,020.0,9.3,0000.0,0014.88,0004.58,0003.43
2024-01-11 18:57:00,SystemResetWarning,0815.4,5.00,000.00,019.1,018.4,000.0,027.5,020.0,9.3,0000.0,0014.84,0004.57,0003.42
2024-01-11 18:58:00,SystemResetWarning,0815.3,5.00,000.00,019.1,018.3,000.0,027.5,020.0,9.2,0000.0,0015.29,0004.58,0003.42
2024-01-11 18:59:00,SystemResetWarning,0815.3,5.00,000.00,019.1,018.3,000.0,027.5,020.0,9.2,0000.0,0016.10,0004.53,0003.41
